Find Starlink 38003

NORAD ID: 69720 Int'l Des: 2026-147 Owner: SPXS Country: US Constellation: starlink operational
LEOCIRCULARRETROGRADE

現在のビュー

3D地球を読み込み中...

About Starlink 38003

Starlink 38003 (NORAD 69720) is a starlink constellation satellite (v2 mini) launched Jun 28, 2026 by SPXS of US. It operates in LEO, CIRCULAR, RETROGRADE orbit with a mass of 575.00 kg.

次回通過

Passes for default location (London). Set your location on the main map for personalized predictions.

高度履歴

Loading altitude history...

軌道要素

1 69720U 26147S 26221.85457297 .00016155 00000-0 50158-3 0 9994
2 69720 97.2847 258.8436 0002432 88.0188 272.1333 15.33448396 7850
Epoch: Aug 9, 2026 • Age: 12 hours

現在のステータス

高度 472.2 km
遠地点 / 近地点 N/A
速度 7.63 km/s
衛星直下点 -14.75°S, 6.2°W
打ち上げ日 Jun 28, 2026
運用期間 0.1 years
タイプ internet

技術仕様

分類 Payload
質量 575.00 kg
乾燥質量 530.00 kg
総質量 575.00 kg
長さ 0.30 m
直径 4.10 m
スパン 29.00 m
形状 Box + pan
製造者 SPXS
バスタイプ Starlink V2MO
フェーズステータス In Orbit
所有者/国 SPXS/US

Most Searched